[[{"header":{"parameterUnit":"m.s-1","parameterCategory":1,"la1":30.2991,"la2":30.254,"lo1":-89.0895,"lo2":-89.0444,"dy":0.0017,"dx":0.0017,"nx":28,"ny":28,"refTime":"2024-10-16T03:00:00:Z","depth":0,"parameterNumber":2,"parameterNumberName":"U-component_of_WINDS"},"data":[0,0,0,0,0,0,0,0,0,0,0,0,0,0,0,0,0,0,0,0,0,0,0,0,0,0,0,0,0,0,0,0,0,0,0,0,0,0,0,0,0,0,0,0,0,0,0,0,0,0,0,0,0,0,0,0,0,0,-2.1031,-2.1031,0,-2.1043,-2.1043,-2.1044,-2.1001,-2.1,-2.0998,-2.0997,-2.101,-2.1012,-2.1014,0,0,0,0,0,0,0,0,0,0,0,0,0,-2.0969,-2.097,-2.1031,-2.1031,-2.1031,-2.1043,-2.1043,-2.1044,-2.1001,-2.1,-2.0998,-2.0996,-2.101,-2.1012,-2.1014,0,0,0,0,0,0,0,0,0,0,0,0,0,-2.099,-2.0971,-2.1031,-2.1011,-2.101,-2.1043,-2.1043,-2.1044,-2.1001,-2.0999,-2.0998,-2.0996,-2.1009,-2.1012,-2.1014,-2.1067,0,0,-2.1021,-2.1022,0,0,0,0,0,0,0,0,-2.0989,-2.0992,-2.1014,-2.1013,-2.1011,-2.1018,-2.1027,-2.1052,-2.1002,-2.1005,-2.0997,-2.0995,-2.1015,-2.1016,-2.1023,-2.1068,-2.1068,-2.1021,-2.1023,-2.1024,-2.1024,0,0,0,0,0,0,0,-2.0988,-2.0992,-2.1036,-2.1014,-2.1012,-2.1002,-2.1003,-2.1031,-2.102,-2.1004,-2.1001,-2.1003,-2.1014,-2.1021,-2.1023,-2.1068,-2.1021,-2.1023,-2.1025,-2.1026,-2.1157,-2.1159,0,0,0,0,0,0,-2.0989,-2.0991,-2.1035,-2.1036,-2.0995,-2.1004,-2.1005,-2.1018,-2.102,-2.1018,-2.1005,-2.1001,-2.1018,-2.102,-2.1023,-2.1086,-2.1024,-2.1026,-2.1027,-2.1155,-2.1157,-2.1159,0,0,0,0,0,0,-2.0988,-2.0993,-2.1035,-2.1013,-2.1017,-2.1007,-2.1022,-2.1019,-2.1027,-2.102,-2.1018,-2.1014,-2.1017,-2.102,-2.1056,-2.1086,-2.1027,-2.1029,-2.1152,-2.1155,-2.1158,-2.1211,0,0,0,0,0,0,-2.0986,-2.0993,-2.1013,-2.1013,-2.1018,-2.1068,-2.1024,-2.1021,-2.1031,-2.1026,-2.1029,-2.1027,-2.1015,-2.1053,-2.1059,-2.1088,-2.1031,-2.115,-2.1154,-2.1157,-2.1207,-2.1215,-2.1223,0,0,0,0,0,-2.0984,-2.1028,-2.1014,-2.102,-2.1044,-2.107,-2.1072,-2.1057,-2.1033,-2.1054,-2.1049,-2.1027,-2.1081,-2.1057,-2.1063,-2.1093,-2.1148,-2.1152,-2.1157,-2.1203,-2.1214,-2.1223,0,0,0,0,0,0,-2.1032,-2.1027,-2.1013,-2.1058,-2.1064,-2.1062,-2.1087,-2.1069,-2.1083,-2.1078,-2.1059,-2.106,-2.11,-2.11,-2.1073,-2.1145,-2.111,-2.1116,-2.1143,-2.1153,-2.1161,-2.1161,-2.1033,0,0,0,0,0,-2.1047,-2.1069,-2.1064,-2.1104,-2.1108,-2.1097,-2.1108,-2.1096,-2.1102,-2.1104,-2.1103,-2.111,-2.1128,-2.114,-2.1157,-2.1206,-2.1206,-2.123,-2.1238,-2.1245,-2.125,-2.1276,-2.1286,-2.1175,-2.1175,-2.1175,0,0,-2.108,-2.108,-2.1095,-2.1114,-2.1117,-2.114,-2.11,-2.1126,-2.1142,-2.1108,-2.1143,-2.1142,-2.1148,-2.1191,-2.1209,-2.1192,-2.1281,-2.1251,-2.1256,-2.1258,-2.1282,-2.1292,-2.1302,-2.1178,-2.1177,-2.1177,0,0,-2.1152,-2.1154,-2.1188,-2.1192,-2.1198,-2.119,-2.1198,-2.1199,-2.1197,-2.1231,-2.1206,-2.1225,-2.1257,-2.1262,-2.1269,-2.1342,-2.1322,-2.1347,-2.1391,-2.1416,-2.1425,-2.1433,-2.1459,-2.1468,-2.1353,-2.1353,-2.1353,0,-2.1192,-2.1225,-2.1207,-2.1235,-2.1244,-2.1213,-2.1247,-2.1252,-2.1263,-2.127,-2.125,-2.1289,-2.1291,-2.1335,-2.1353,-2.1359,-2.1368,-2.1347,-2.1425,-2.1433,-2.1439,-2.1464,-2.1474,-2.1356,-2.1356,-2.1356,-2.1355,0,-2.1274,-2.1298,-2.1324,-2.1335,-2.1347,-2.1377,-2.1364,-2.1378,-2.1364,-2.1359,-2.1393,-2.1394,-2.141,-2.142,-2.1407,-2.1461,-2.145,-2.1428,-2.1394,-2.1454,-2.1476,-2.1486,-2.1361,-2.136,-2.1359,-2.1358,0,0,-2.1377,-2.1378,-2.1388,-2.1392,-2.1396,-2.1413,-2.1442,-2.1458,-2.147,-2.1478,-2.1502,-2.1529,-2.1509,-2.1516,-2.1504,-2.1526,-2.1583,-2.1501,-2.1501,-2.1516,-2.1643,-2.166,-2.1671,-2.157,-2.1571,-2.1573,-2.1643,0,-2.1448,-2.1497,-2.1482,-2.1532,-2.1553,-2.1524,-2.1549,-2.1554,-2.1549,-2.1566,-2.1561,-2.158,-2.1551,-2.1556,-2.1576,-2.1572,-2.1608,-2.1566,-2.1592,-2.1593,-2.1592,-2.1683,-2.1702,-2.1768,-2.1651,-2.1653,-2.1654,0,-2.1537,-2.1549,-2.1601,-2.16,-2.1608,-2.1631,-2.1644,-2.1661,-2.1665,-2.166,-2.1669,-2.1651,-2.1679,-2.1644,-2.1682,-2.1654,-2.1663,-2.1662,-2.1664,-2.1667,-2.1628,-2.1688,-2.1788,-2.1798,-2.1668,-2.1667,-2.1666,0,-2.1608,-2.1636,-2.167,-2.1675,-2.1675,-2.1692,-2.1693,-2.1696,-2.1706,-2.1717,-2.1723,-2.1737,-2.1745,-2.1756,-2.1743,-2.1718,-2.1783,-2.1747,-2.178,-2.178,-2.1795,-2.1795,-2.1899,-2.1801,-2.1801,-2.18,-2.18,0,-2.1688,-2.1721,-2.1702,-2.1724,-2.1759,-2.1741,-2.1777,-2.1774,-2.1777,-2.1797,-2.1773,-2.1792,-2.1773,-2.1791,-2.1781,-2.1814,-2.1818,-2.1814,-2.1811,-2.1817,-2.1817,-2.1823,-2.1818,-2.1803,-2.1802,-2.1802,-2.1801,0,-2.1773,-2.1762,-2.1798,-2.1795,-2.1795,-2.1821,-2.1819,-2.1838,-2.1831,-2.1857,-2.1862,-2.1851,-2.1871,-2.1858,-2.1878,-2.1871,-2.1914,-2.1905,-2.1913,-2.1911,-2.1945,-2.1942,-2.2056,-2.207,-2.1963,-2.1964,-2.1965,0,-2.1826,-2.1851,-2.185,-2.1862,-2.1864,-2.1883,-2.1893,-2.1876,-2.1887,-2.1894,-2.1913,-2.193,-2.1943,-2.1975,-2.1969,-2.1984,-2.1975,-2.2014,-2.1977,-2.1982,-2.1976,-2.1975,-2.1977,-2.2022,-2.2023,-2.2024,-2.2025,0,-2.1921,-2.1914,-2.1929,-2.1942,-2.1955,-2.1964,-2.1972,-2.1983,-2.1965,-2.1979,-2.1998,-2.2009,-2.2028,-2.2046,-2.2058,-2.2059,-2.2039,-2.2036,-2.2045,-2.2051,-2.2055,-2.2054,-2.1934,-2.2034,-2.2033,-2.2032,-2.2032,-2.2032,-2.1992,-2.2012,-2.2015,-2.2032,-2.2036,-2.2043,-2.2062,-2.2056,-2.2072,-2.2087,-2.2075,-2.2099,-2.2102,-2.2116,-2.2119,-2.2137,-2.2121,-2.2134,-2.2137,-2.214,-2.2145,-2.2052,-2.2139,-2.2139,-2.2139,-2.2138,-2.2138,0,-2.2085,-2.2085,-2.2102,-2.2113,-2.2127,-2.2106,-2.2113,-2.2126,-2.2147,-2.2151,-2.2164,-2.2187,-2.2203,-2.2198,-2.2213,-2.2228,-2.2219,-2.2233,-2.2232,-2.2232,-2.2158,-2.215,-2.2239,-2.2239,-2.2239,-2.2239,-2.2239,-2.2239,-2.2136,-2.2169,-2.2162,-2.2197,-2.2196,-2.2219,-2.2225,-2.2231,-2.2235,-2.2261,-2.2274,-2.227,-2.2271,-2.2285,-2.23,-2.2298,-2.2304,-2.2321,-2.2316,-2.2247,-2.2237,-2.2228,-2.222,-2.2323,-2.2323,-2.2388,-2.2389,-2.2389]},{"header":{"parameterUnit":"m.s-1","parameterCategory":1,"la1":30.2991,"la2":30.254,"lo1":-89.0895,"lo2":-89.0444,"dy":0.0017,"dx":0.0017,"nx":28,"ny":28,"refTime":"2024-10-16T03:00:00:Z","depth":0,"parameterNumber":3,"parameterNumberName":"V-component_of_WINDS"},"data":[0,0,0,0,0,0,0,0,0,0,0,0,0,0,0,0,0,0,0,0,0,0,0,0,0,0,0,0,0,0,0,0,0,0,0,0,0,0,0,0,0,0,0,0,0,0,0,0,0,0,0,0,0,0,0,0,0,0,-6.9446,-6.9447,0,-6.9513,-6.9514,-6.9515,-6.947,-6.9468,-6.9466,-6.9464,-6.9526,-6.953,-6.9533,0,0,0,0,0,0,0,0,0,0,0,0,0,-6.9275,-6.9278,-6.9446,-6.9447,-6.9448,-6.9513,-6.9514,-6.9515,-6.947,-6.9468,-6.9465,-6.9463,-6.9525,-6.9529,-6.9533,0,0,0,0,0,0,0,0,0,0,0,0,0,-6.9346,-6.9279,-6.9446,-6.9434,-6.9433,-6.9513,-6.9514,-6.9515,-6.9471,-6.9468,-6.9464,-6.9462,-6.9524,-6.9529,-6.9534,-6.9628,0,0,-6.955,-6.9553,0,0,0,0,0,0,0,0,-6.9342,-6.9352,-6.9435,-6.9435,-6.9434,-6.948,-6.9476,-6.9553,-6.9471,-6.9456,-6.9464,-6.946,-6.9513,-6.9519,-6.9538,-6.9631,-6.9633,-6.9551,-6.9554,-6.9556,-6.9558,0,0,0,0,0,0,0,-6.9337,-6.9349,-6.9473,-6.9436,-6.9436,-6.9423,-6.943,-6.949,-6.9501,-6.9457,-6.9454,-6.9463,-6.9512,-6.9533,-6.9539,-6.9634,-6.9551,-6.9555,-6.9559,-6.9561,-6.9807,-6.9811,0,0,0,0,0,0,-6.9334,-6.9345,-6.947,-6.9475,-6.938,-6.9429,-6.9436,-6.9468,-6.95,-6.9502,-6.9466,-6.9461,-6.9525,-6.9533,-6.9541,-6.9653,-6.9556,-6.9561,-6.9564,-6.9804,-6.9808,-6.9812,0,0,0,0,0,0,-6.9331,-6.9346,-6.9468,-6.9409,-6.9424,-6.9435,-6.9471,-6.9471,-6.9492,-6.9506,-6.9507,-6.9485,-6.9523,-6.9533,-6.9607,-6.9655,-6.9564,-6.9568,-6.98,-6.9805,-6.981,-6.9878,0,0,0,0,0,0,-6.9326,-6.9345,-6.9382,-6.9411,-6.9427,-6.9534,-6.9474,-6.9475,-6.9502,-6.9496,-6.9525,-6.9527,-6.9522,-6.9599,-6.9612,-6.966,-6.9573,-6.9796,-6.9802,-6.9808,-6.9872,-6.9885,-6.9896,0,0,0,0,0,-6.932,-6.9397,-6.9384,-6.9399,-6.9474,-6.9537,-6.9547,-6.9541,-6.9506,-6.9543,-6.9552,-6.9526,-6.9648,-6.9607,-6.9621,-6.9672,-6.9793,-6.9801,-6.9808,-6.9866,-6.9882,-6.9896,0,0,0,0,0,0,-6.937,-6.94,-6.9386,-6.9475,-6.9504,-6.953,-6.9575,-6.9558,-6.9596,-6.9589,-6.9578,-6.9585,-6.9662,-6.9674,-6.9629,-6.9764,-6.9714,-6.9725,-6.9754,-6.9769,-6.9781,-6.9777,-6.9577,0,0,0,0,0,-6.9393,-6.9444,-6.9466,-6.9542,-6.9558,-6.9564,-6.9592,-6.9585,-6.9614,-6.9625,-6.964,-6.9667,-6.9712,-6.9741,-6.9783,-6.9873,-6.9879,-6.9915,-6.9927,-6.9937,-6.9947,-6.9995,-7.0012,-6.9837,-6.9837,-6.9836,0,0,-6.9437,-6.946,-6.9492,-6.9553,-6.9575,-6.9626,-6.9575,-6.9631,-6.9669,-6.9633,-6.9704,-6.9716,-6.9746,-6.9829,-6.9866,-6.9841,-6.9996,-6.9947,-6.9955,-6.9959,-7.0005,-7.0021,-7.0036,-6.9842,-6.9841,-6.984,0,0,-6.9546,-6.9568,-6.9635,-6.9658,-6.9693,-6.9697,-6.9713,-6.9742,-6.9749,-6.9821,-6.9795,-6.9839,-6.9916,-6.9939,-6.996,-7.0079,-7.0056,-7.0092,-7.0156,-7.0204,-7.0218,-7.023,-7.0272,-7.0287,-7.0102,-7.0102,-7.0102,0,-6.9596,-6.9675,-6.967,-6.973,-6.9757,-6.9729,-6.9796,-6.9818,-6.9864,-6.9882,-6.9855,-6.9951,-6.9969,-7.0057,-7.0086,-7.0105,-7.0122,-7.0089,-7.0217,-7.0229,-7.024,-7.028,-7.0296,-7.0106,-7.0105,-7.0105,-7.0105,0,-6.9736,-6.9791,-6.984,-6.9888,-6.992,-6.9983,-6.9986,-7.0019,-7.001,-7.0016,-7.0089,-7.011,-7.0156,-7.0177,-7.0167,-7.0263,-7.0247,-7.0218,-7.0168,-7.0261,-7.0298,-7.0314,-7.0112,-7.011,-7.0109,-7.0108,0,0,-6.9877,-6.9923,-6.9941,-6.9963,-7.0,-7.0041,-7.0102,-7.0149,-7.0178,-7.021,-7.026,-7.0327,-7.0301,-7.0325,-7.0318,-7.036,-7.0453,-7.0326,-7.0326,-7.0349,-7.056,-7.0581,-7.0599,-7.0438,-7.0441,-7.0444,-7.0557,0,-6.9988,-7.0096,-7.0094,-7.0194,-7.0245,-7.022,-7.0273,-7.03,-7.0309,-7.0351,-7.0359,-7.0406,-7.0368,-7.0383,-7.0424,-7.0433,-7.0495,-7.0425,-7.0483,-7.0486,-7.0477,-7.0619,-7.0642,-7.0748,-7.0572,-7.0575,-7.0576,0,-7.0131,-7.0171,-7.0277,-7.0308,-7.0329,-7.0377,-7.042,-7.0462,-7.0492,-7.0495,-7.0524,-7.051,-7.057,-7.0519,-7.0601,-7.0553,-7.0577,-7.0585,-7.0589,-7.0594,-7.0536,-7.0627,-7.0782,-7.0798,-7.0599,-7.0598,-7.0596,0,-7.0223,-7.0304,-7.0378,-7.0397,-7.0435,-7.0469,-7.0486,-7.0514,-7.0542,-7.058,-7.0598,-7.0641,-7.0664,-7.0697,-7.0695,-7.0658,-7.0778,-7.0727,-7.0781,-7.0782,-7.0807,-7.0806,-7.0968,-7.0823,-7.0823,-7.0823,-7.0822,0,-7.0347,-7.0413,-7.042,-7.0466,-7.0539,-7.0535,-7.0606,-7.0619,-7.0644,-7.0691,-7.0671,-7.0715,-7.071,-7.0753,-7.0751,-7.082,-7.083,-7.0833,-7.0832,-7.0835,-7.0835,-7.085,-7.0842,-7.0827,-7.0826,-7.0825,-7.0825,0,-7.0462,-7.047,-7.0549,-7.058,-7.0589,-7.0641,-7.0665,-7.0708,-7.0715,-7.0774,-7.0787,-7.0798,-7.0848,-7.0849,-7.0906,-7.0905,-7.0988,-7.0979,-7.0979,-7.0977,-7.1032,-7.1027,-7.1209,-7.1232,-7.1073,-7.1075,-7.1076,0,-7.0541,-7.0591,-7.0628,-7.0659,-7.0678,-7.0728,-7.0758,-7.0756,-7.0788,-7.0827,-7.0865,-7.0914,-7.0953,-7.1034,-7.1045,-7.1088,-7.1079,-7.114,-7.1085,-7.1087,-7.108,-7.1077,-7.1082,-7.1151,-7.1152,-7.1154,-7.1155,0,-7.0679,-7.0681,-7.0726,-7.0773,-7.0811,-7.0847,-7.088,-7.0906,-7.0908,-7.0944,-7.0997,-7.1028,-7.1087,-7.1135,-7.1178,-7.1193,-7.1174,-7.1173,-7.1187,-7.1191,-7.1189,-7.1191,-7.1008,-7.1168,-7.1167,-7.1166,-7.1165,-7.1165,-7.0778,-7.0822,-7.0855,-7.0906,-7.0932,-7.0964,-7.1006,-7.102,-7.1064,-7.1114,-7.111,-7.1168,-7.1197,-7.1252,-7.1271,-7.1315,-7.1294,-7.1316,-7.1321,-7.1326,-7.1332,-7.1183,-7.1323,-7.1323,-7.1322,-7.1322,-7.1322,0,-7.0915,-7.0936,-7.0983,-7.1032,-7.1073,-7.1054,-7.1091,-7.1125,-7.1177,-7.1207,-7.1247,-7.1307,-7.1354,-7.137,-7.1415,-7.1448,-7.144,-7.146,-7.1457,-7.1461,-7.1349,-7.1332,-7.1465,-7.1465,-7.1465,-7.1465,-7.1465,-7.1465,-7.0991,-7.1065,-7.1071,-7.1157,-7.1176,-7.1236,-7.1258,-7.1287,-7.1311,-7.138,-7.1421,-7.1431,-7.1455,-7.1503,-7.1545,-7.1548,-7.1565,-7.1588,-7.1588,-7.1483,-7.1469,-7.1455,-7.1438,-7.1592,-7.1592,-7.1696,-7.1697,-7.1698]}]]